Time,TemperatureF,DewpointF,PressureIn,WindDirection,WindDirectionDegrees,WindSpeedMPH,WindSpeedGustMPH,Humidity,HourlyPrecipIn,Conditions,Clouds,dailyrainin,SoftwareType,DateUTC
2013-03-16 00:02:00,36.7,29.0,29.67,WNW,293,1.0,7.0,73,0.00,,,0.00,weatherlink.com 1.10,2013-03-16 04:02:00,
2013-03-16 00:17:00,36.8,29.0,29.68,West,264,1.0,9.0,73,0.00,,,0.00,weatherlink.com 1.10,2013-03-16 04:17:00,
2013-03-16 00:32:00,36.8,28.0,29.68,WNW,298,2.0,12.0,71,0.00,,,0.00,weatherlink.com 1.10,2013-03-16 04:32:00,
2013-03-16 00:47:00,36.7,27.0,29.68,North,352,4.0,11.0,68,0.00,,,0.00,weatherlink.com 1.10,2013-03-16 04:47:00,
2013-03-16 01:02:00,36.6,27.0,29.69,NW,313,4.0,11.0,67,0.00,,,0.00,weatherlink.com 1.10,2013-03-16 05:02:00,
2013-03-16 01:17:00,36.3,26.0,29.68,NW,313,2.0,10.0,66,0.00,,,0.00,weatherlink.com 1.10,2013-03-16 05:17:00,
2013-03-16 01:32:00,36.0,26.0,29.69,West,260,0.0,10.0,66,0.00,,,0.00,weatherlink.com 1.10,2013-03-16 05:32:00,
2013-03-16 01:47:00,35.7,26.0,29.69,West,278,3.0,5.0,67,0.00,,,0.00,weatherlink.com 1.10,2013-03-16 05:47:00,
2013-03-16 02:02:00,35.3,26.0,29.70,WSW,255,1.0,5.0,69,0.00,,,0.00,weatherlink.com 1.10,2013-03-16 06:02:00,
2013-03-16 02:17:00,35.1,26.0,29.70,West,268,1.0,5.0,69,0.00,,,0.00,weatherlink.com 1.10,2013-03-16 06:17:00,
2013-03-16 02:32:00,34.8,26.0,29.71,WNW,300,2.0,5.0,69,0.00,,,0.00,weatherlink.com 1.10,2013-03-16 06:32:00,
2013-03-16 02:47:00,34.4,25.0,29.71,NW,326,0.0,4.0,69,0.00,,,0.00,weatherlink.com 1.10,2013-03-16 06:47:00,
2013-03-16 03:02:00,34.2,25.0,29.72,WNW,302,0.0,3.0,68,0.00,,,0.00,weatherlink.com 1.10,2013-03-16 07:02:00,
2013-03-16 03:17:00,34.0,24.0,29.72,NW,318,0.0,5.0,67,0.00,,,0.00,weatherlink.com 1.10,2013-03-16 07:17:00,
2013-03-16 03:32:00,33.6,24.0,29.73,WNW,301,0.0,4.0,68,0.00,,,0.00,weatherlink.com 1.10,2013-03-16 07:32:00,
2013-03-16 03:47:00,33.0,24.0,29.73,WNW,303,0.0,3.0,70,0.00,,,0.00,weatherlink.com 1.10,2013-03-16 07:47:00,
2013-03-16 04:02:00,32.5,24.0,29.74,NNW,338,0.0,1.0,72,0.00,,,0.00,weatherlink.com 1.10,2013-03-16 08:02:00,
2013-03-16 04:17:00,32.4,24.0,29.74,NNW,330,1.0,3.0,72,0.00,,,0.00,weatherlink.com 1.10,2013-03-16 08:17:00,
2013-03-16 04:32:00,32.3,25.0,29.75,West,279,0.0,5.0,73,0.00,,,0.00,weatherlink.com 1.10,2013-03-16 08:32:00,
2013-03-16 04:47:00,32.1,24.0,29.75,WNW,295,0.0,9.0,73,0.00,,,0.00,weatherlink.com 1.10,2013-03-16 08:47:00,
2013-03-16 05:02:00,31.8,24.0,29.76,NNW,341,0.0,4.0,74,0.00,,,0.00,weatherlink.com 1.10,2013-03-16 09:02:00,
2013-03-16 05:17:00,31.5,24.0,29.77,NNW,341,0.0,1.0,74,0.00,,,0.00,weatherlink.com 1.10,2013-03-16 09:17:00,
2013-03-16 05:32:00,31.2,24.0,29.78,West,264,0.0,1.0,74,0.00,,,0.00,weatherlink.com 1.10,2013-03-16 09:32:00,
2013-03-16 05:47:00,31.2,23.0,29.78,West,273,0.0,1.0,73,0.00,,,0.00,weatherlink.com 1.10,2013-03-16 09:47:00,
2013-03-16 06:03:00,30.9,23.0,29.79,NW,317,1.0,3.0,73,0.00,,,0.00,weatherlink.com 1.10,2013-03-16 10:03:00,
2013-03-16 06:18:00,30.7,23.0,29.78,NW,325,0.0,2.0,72,0.00,,,0.00,weatherlink.com 1.10,2013-03-16 10:18:00,
2013-03-16 06:33:00,30.6,23.0,29.79,NW,321,0.0,0.0,72,0.00,,,0.00,weatherlink.com 1.10,2013-03-16 10:33:00,
2013-03-16 06:48:00,30.0,22.0,29.79,NW,321,0.0,0.0,73,0.00,,,0.00,weatherlink.com 1.10,2013-03-16 10:48:00,
2013-03-16 07:03:00,29.5,23.0,29.79,NW,321,0.0,2.0,76,0.00,,,0.00,weatherlink.com 1.10,2013-03-16 11:03:00,
2013-03-16 07:18:00,29.7,23.0,29.80,West,276,0.0,3.0,75,0.00,,,0.00,weatherlink.com 1.10,2013-03-16 11:18:00,
2013-03-16 07:33:00,30.5,23.0,29.80,West,276,0.0,1.0,73,0.00,,,0.00,weatherlink.com 1.10,2013-03-16 11:33:00,
2013-03-16 07:48:00,31.1,22.0,29.80,NW,323,0.0,2.0,70,0.00,,,0.00,weatherlink.com 1.10,2013-03-16 11:48:00,
2013-03-16 08:03:00,31.7,21.0,29.81,NW,324,0.0,1.0,65,0.00,,,0.00,weatherlink.com 1.10,2013-03-16 12:03:00,
2013-03-16 08:18:00,32.3,21.0,29.81,North,357,0.0,2.0,64,0.00,,,0.00,weatherlink.com 1.10,2013-03-16 12:18:00,
2013-03-16 08:33:00,33.0,21.0,29.81,NNW,331,0.0,3.0,61,0.00,,,0.00,weatherlink.com 1.10,2013-03-16 12:33:00,
2013-03-16 08:48:00,33.7,20.0,29.81,NNW,333,0.0,6.0,57,0.00,,,0.00,weatherlink.com 1.10,2013-03-16 12:48:00,
2013-03-16 09:38:00,36.2,20.0,29.82,NNW,334,1.0,6.0,53,0.00,,,0.00,weatherlink.com 1.10,2013-03-16 13:38:00,
2013-03-16 09:48:00,37.6,20.0,29.82,NNW,338,0.0,4.0,50,0.00,,,0.00,weatherlink.com 1.10,2013-03-16 13:48:00,
2013-03-16 10:03:00,37.4,20.0,29.82,NW,308,2.0,9.0,49,0.00,,,0.00,weatherlink.com 1.10,2013-03-16 14:03:00,
2013-03-16 10:18:00,36.9,18.0,29.81,NW,312,0.0,8.0,47,0.00,,,0.00,weatherlink.com 1.10,2013-03-16 14:18:00,
2013-03-16 10:33:00,36.5,16.0,29.81,WSW,245,0.0,3.0,44,0.00,,,0.00,weatherlink.com 1.10,2013-03-16 14:33:00,
2013-03-16 10:48:00,36.7,15.0,29.81,NW,312,0.0,6.0,42,0.00,,,0.00,weatherlink.com 1.10,2013-03-16 14:48:00,
2013-03-16 11:03:00,36.5,13.0,29.81,West,274,0.0,4.0,38,0.00,,,0.00,weatherlink.com 1.10,2013-03-16 15:03:00,
2013-03-16 11:18:00,37.1,15.0,29.81,NNW,347,0.0,3.0,41,0.00,,,0.00,weatherlink.com 1.10,2013-03-16 15:18:00,
2013-03-16 11:33:00,37.0,13.0,29.81,WSW,250,1.0,6.0,38,0.00,,,0.00,weatherlink.com 1.10,2013-03-16 15:33:00,
2013-03-16 11:48:00,37.8,15.0,29.80,NNW,344,1.0,3.0,39,0.00,,,0.00,weatherlink.com 1.10,2013-03-16 15:48:00,
2013-03-16 12:03:00,37.1,16.0,29.80,NNW,346,0.0,3.0,42,0.00,,,0.00,weatherlink.com 1.10,2013-03-16 16:03:00,
2013-03-16 12:18:00,37.4,16.0,29.80,WNW,293,0.0,5.0,42,0.00,,,0.00,weatherlink.com 1.10,2013-03-16 16:18:00,
2013-03-16 12:33:00,36.7,17.0,29.80,West,263,0.0,4.0,44,0.00,,,0.00,weatherlink.com 1.10,2013-03-16 16:33:00,
2013-03-16 12:48:00,37.7,16.0,29.79,NNW,332,0.0,2.0,42,0.00,,,0.00,weatherlink.com 1.10,2013-03-16 16:48:00,
2013-03-16 13:03:00,38.6,17.0,29.78,North,6,0.0,2.0,41,0.00,,,0.00,weatherlink.com 1.10,2013-03-16 17:03:00,
2013-03-16 13:18:00,39.5,17.0,29.77,NNW,334,0.0,2.0,41,0.00,,,0.00,weatherlink.com 1.10,2013-03-16 17:18:00,
2013-03-16 13:33:00,39.0,16.0,29.77,West,266,0.0,5.0,39,0.00,,,0.00,weatherlink.com 1.10,2013-03-16 17:33:00,
2013-03-16 13:49:00,38.4,15.0,29.76,WNW,297,0.0,3.0,39,0.00,,,0.00,weatherlink.com 1.10,2013-03-16 17:49:00,
2013-03-16 14:03:00,38.6,15.0,29.77,SW,220,0.0,4.0,38,0.00,,,0.00,weatherlink.com 1.10,2013-03-16 18:03:00,
2013-03-16 14:18:00,40.6,17.0,29.77,NNW,338,1.0,2.0,38,0.00,,,0.00,weatherlink.com 1.10,2013-03-16 18:18:00,
2013-03-16 14:33:00,39.7,15.0,29.77,West,272,0.0,6.0,37,0.00,,,0.00,weatherlink.com 1.10,2013-03-16 18:33:00,
2013-03-16 14:48:00,41.2,17.0,29.77,NW,315,0.0,3.0,38,0.00,,,0.00,weatherlink.com 1.10,2013-03-16 18:48:00,
2013-03-16 15:03:00,40.4,15.0,29.77,SSW,198,0.0,5.0,36,0.00,,,0.00,weatherlink.com 1.10,2013-03-16 19:03:00,
2013-03-16 15:18:00,39.5,14.0,29.77,West,276,2.0,4.0,36,0.00,,,0.00,weatherlink.com 1.10,2013-03-16 19:18:00,
2013-03-16 15:33:00,38.8,15.0,29.77,WNW,302,0.0,3.0,38,0.00,,,0.00,weatherlink.com 1.10,2013-03-16 19:33:00,
2013-03-16 15:48:00,38.5,14.0,29.77,WSW,256,0.0,7.0,36,0.00,,,0.00,weatherlink.com 1.10,2013-03-16 19:48:00,
2013-03-16 16:03:00,38.8,14.0,29.77,NW,319,0.0,4.0,37,0.00,,,0.00,weatherlink.com 1.10,2013-03-16 20:03:00,
2013-03-16 16:18:00,39.3,14.0,29.77,North,350,0.0,3.0,36,0.00,,,0.00,weatherlink.com 1.10,2013-03-16 20:18:00,
2013-03-16 16:33:00,39.2,14.0,29.76,North,352,0.0,3.0,36,0.00,,,0.00,weatherlink.com 1.10,2013-03-16 20:33:00,
2013-03-16 16:48:00,40.3,11.0,29.76,West,276,0.0,4.0,30,0.00,,,0.00,weatherlink.com 1.10,2013-03-16 20:48:00,
2013-03-16 17:03:00,40.8,12.0,29.76,WNW,290,0.0,3.0,31,0.00,,,0.00,weatherlink.com 1.10,2013-03-16 21:03:00,
2013-03-16 17:19:00,40.3,12.0,29.76,WSW,250,0.0,4.0,31,0.00,,,0.00,weatherlink.com 1.10,2013-03-16 21:19:00,
2013-03-16 17:34:00,39.2,17.0,29.76,SSW,210,2.0,8.0,40,0.00,,,0.00,weatherlink.com 1.10,2013-03-16 21:34:00,
2013-03-16 17:49:00,37.9,18.0,29.74,SW,222,1.0,5.0,44,0.00,,,0.00,weatherlink.com 1.10,2013-03-16 21:49:00,
2013-03-16 18:04:00,37.2,18.0,29.75,SW,234,1.0,4.0,46,0.00,,,0.00,weatherlink.com 1.10,2013-03-16 22:04:00,
2013-03-16 18:19:00,36.5,18.0,29.75,SW,231,0.0,4.0,47,0.00,,,0.00,weatherlink.com 1.10,2013-03-16 22:19:00,
2013-03-16 18:34:00,35.9,19.0,29.75,SSW,196,3.0,5.0,50,0.00,,,0.00,weatherlink.com 1.10,2013-03-16 22:34:00,
2013-03-16 18:49:00,35.5,19.0,29.76,SSW,201,1.0,4.0,52,0.00,,,0.00,weatherlink.com 1.10,2013-03-16 22:49:00,
2013-03-16 19:04:00,35.4,20.0,29.76,SSW,213,0.0,4.0,53,0.00,,,0.00,weatherlink.com 1.10,2013-03-16 23:04:00,
2013-03-16 19:19:00,35.3,20.0,29.77,West,264,0.0,3.0,53,0.00,,,0.00,weatherlink.com 1.10,2013-03-16 23:19:00,
2013-03-16 19:34:00,35.3,20.0,29.77,WSW,254,0.0,4.0,54,0.00,,,0.00,weatherlink.com 1.10,2013-03-16 23:34:00,
2013-03-16 19:49:00,35.3,21.0,29.78,West,274,0.0,3.0,56,0.00,,,0.00,weatherlink.com 1.10,2013-03-16 23:49:00,
2013-03-16 20:04:00,35.3,22.0,29.79,SW,233,0.0,2.0,58,0.00,,,0.00,weatherlink.com 1.10,2013-03-17 00:04:00,
2013-03-16 20:19:00,35.3,22.0,29.79,West,274,0.0,4.0,58,0.00,,,0.00,weatherlink.com 1.10,2013-03-17 00:19:00,
2013-03-16 20:34:00,35.3,25.0,29.80,West,263,3.0,5.0,67,0.00,,,0.00,weatherlink.com 1.10,2013-03-17 00:34:00,
2013-03-16 20:49:00,35.1,27.0,29.80,WSW,245,0.0,7.0,73,0.00,,,0.00,weatherlink.com 1.10,2013-03-17 00:49:00,
2013-03-16 21:04:00,35.0,28.0,29.80,WSW,250,3.0,4.0,75,0.00,,,0.00,weatherlink.com 1.10,2013-03-17 01:04:00,
2013-03-16 21:19:00,34.9,28.0,29.80,West,279,0.0,3.0,75,0.00,,,0.00,weatherlink.com 1.10,2013-03-17 01:19:00,
2013-03-16 21:34:00,34.9,28.0,29.81,WNW,289,0.0,3.0,75,0.00,,,0.00,weatherlink.com 1.10,2013-03-17 01:34:00,
2013-03-16 21:49:00,34.8,28.0,29.81,WNW,286,0.0,3.0,75,0.00,,,0.00,weatherlink.com 1.10,2013-03-17 01:49:00,
2013-03-16 22:04:00,34.8,27.0,29.81,WNW,286,0.0,2.0,74,0.00,,,0.00,weatherlink.com 1.10,2013-03-17 02:04:00,
2013-03-16 22:19:00,34.8,27.0,29.82,WSW,255,0.0,3.0,74,0.00,,,0.00,weatherlink.com 1.10,2013-03-17 02:19:00,
2013-03-16 22:34:00,34.9,27.0,29.82,West,269,3.0,4.0,73,0.00,,,0.00,weatherlink.com 1.10,2013-03-17 02:34:00,
2013-03-16 22:49:00,34.8,27.0,29.83,West,266,1.0,5.0,72,0.00,,,0.00,weatherlink.com 1.10,2013-03-17 02:49:00,
2013-03-16 23:04:00,34.8,26.0,29.83,West,275,0.0,3.0,70,0.00,,,0.00,weatherlink.com 1.10,2013-03-17 03:04:00,
2013-03-16 23:19:00,34.7,26.0,29.83,West,263,0.0,1.0,70,0.00,,,0.00,weatherlink.com 1.10,2013-03-17 03:19:00,
2013-03-16 23:34:00,34.6,26.0,29.84,West,263,0.0,1.0,70,0.00,,,0.00,weatherlink.com 1.10,2013-03-17 03:34:00,
2013-03-16 23:49:00,34.5,26.0,29.84,West,263,1.0,2.0,70,0.00,,,0.00,weatherlink.com 1.10,2013-03-17 03:49:00,